CW4772 Weather Reports


time (UTC)temp
F
wind
direction
speed
knots
gust
knots
rain 1hr
in
rain 24hr
in
rain mn
in
humidity
%
barometer
mb
20260507055204 50 225 4.3 10.4 0.00 0.00 0.00 90 1008.8
20260507051705 50 220 3.5 7.0 0.00 0.00 0.00 93 1008.3
20260507050704 50 244 4.3 7.8 0.00 0.00 0.00 93 1008.1
20260507045704 50 226 4.3 7.8 0.00 0.00 0.00 94 1008.1
20260507044204 49 225 2.6 6.1 0.00 0.00 0.00 95 1007.9
20260507042204 49 220 1.7 2.6 0.00 0.00 0.00 95 1007.8
20260507041704 49 251 1.7 2.6 0.00 0.00 0.00 95 1007.6
20260507034704 50 214 0.9 2.6 0.00 0.00 0.00 94 1007.4
20260507034205 50 207 1.7 2.6 0.00 0.00 0.00 94 1007.3
20260507033705 50 230 0.9 2.6 0.00 0.00 0.00 94 1007.1
20260507033204 50 230 0.9 4.3 0.00 0.00 0.00 94 1007.1
20260507032704 50 230 1.7 4.3 0.00 0.00 0.00 94 1007.1
20260507032203 51 227 1.7 4.3 0.00 0.00 0.00 94 1007.1
20260507031204 51 233 1.7 5.2 0.00 0.00 0.00 94 1007.0
20260507030704 51 223 1.7 5.2 0.00 0.00 0.00 94 1007.0
20260507025705 51 213 2.6 7.0 0.00 0.00 0.00 94 1006.9
20260507025204 51 225 2.6 7.0 0.00 0.00 0.00 95 1006.8
20260507024704 51 261 2.6 7.0 0.00 0.00 0.00 95 1006.7
20260507023705 51 256 1.7 6.1 0.00 0.00 0.00 95 1006.8
20260507021204 52 239 1.7 4.3 0.00 0.00 0.00 95 1006.6
20260507015704 52 225 2.6 7.0 0.00 0.00 0.00 95 1006.6
20260507013704 52 226 1.7 4.3 0.00 0.00 0.00 95 1006.3
20260507012205 52 233 2.6 6.1 0.00 0.00 0.00 95 1006.4
20260507011704 52 218 1.7 4.3 0.00 0.00 0.00 95 1006.5
20260507005204 53 245 0.9 4.3 0.00 0.00 0.00 95 1006.3
20260507003705 53 223 2.6 5.2 0.00 0.00 0.00 94 1006.2
20260507003204 53 239 2.6 5.2 0.00 0.00 0.00 94 1006.0
20260507002204 53 281 0.9 2.6 0.00 0.00 0.00 93 1005.9
20260507001205 53 260 1.7 4.3 0.00 0.00 0.00 93 1005.9
20260507000704 53 259 0.9 2.6 0.00 0.00 0.00 93 1005.8
20260507000205 54 257 1.7 2.6 0.00 0.00 0.00 92 1005.8
20260506235204 54 290 0.9 6.1 0.00 0.00 0.00 92 1005.6
20260506233704 54 249 2.6 10.4 0.00 0.00 0.00 93 1005.9
20260506233204 54 252 4.3 10.4 0.00 0.00 0.00 93 1005.9
20260506232705 54 250 4.3 8.7 0.00 0.00 0.00 93 1005.8
20260506231704 54 249 2.6 10.4 0.00 0.00 0.00 93 1005.5
20260506230704 54 273 3.5 10.4 0.00 0.00 0.00 93 1005.2
20260506230205 54 223 3.5 7.0 0.00 0.00 0.00 93 1005.1
20260506225704 54 237 0.9 7.0 0.00 0.00 0.00 93 1005.0
20260506224705 54 246 1.7 5.2 0.00 0.00 0.00 92 1004.9
20260506223204 55 288 0.9 5.2 0.00 0.00 0.00 92 1004.6
20260506222705 55 262 0.9 7.8 0.00 0.00 0.00 92 1004.6
20260506222204 55 265 2.6 7.8 0.00 0.00 0.00 91 1004.6
20260506221704 55 261 1.7 7.0 0.00 0.00 0.00 91 1004.7
20260506220706 55 246 2.6 7.8 0.00 0.00 0.00 91 1004.5
20260506215704 54 323 1.7 2.6 0.00 0.00 0.00 91 1003.9
20260506214705 54 32 0.9 2.6 0.00 0.00 0.00 91 1003.5
20260506214204 54 29 0.9 2.6 0.00 0.00 0.00 91 1003.5
20260506213705 55 27 0.9 4.3 0.00 0.00 0.00 91 1003.3
20260506213204 55 355 0.9 4.3 0.00 0.00 0.00 90 1003.4
20260506212704 55 312 1.7 7.0 0.00 0.00 0.00 90 1003.6
20260506212204 55 282 2.6 8.7 0.00 0.00 0.00 90 1003.8
20260506211704 55 280 2.6 8.7 0.00 0.00 0.00 90 1003.7
20260506211204 55 279 4.3 8.7 0.00 0.00 0.00 90 1003.6
20260506210704 55 269 2.6 7.8 0.00 0.00 0.00 90 1003.6
20260506205203 55 280 5.2 11.3 0.00 0.00 0.00 89 1003.8
20260506204703 56 268 4.3 11.3 0.00 0.00 0.00 89 1003.8
20260506204203 56 279 5.2 13.0 0.00 0.00 0.00 88 1003.6
20260506203204 57 301 7.0 13.9 0.00 0.00 0.00 87 1003.5
20260506201203 58 268 5.2 12.2 0.00 0.00 0.00 86 1003.1
20260506200704 58 287 1.7 2.6 0.00 0.00 0.00 87 1002.6
20260506195203 57 25 3.5 7.0 0.00 0.00 0.00 87 1002.0
20260506193703 58 27 2.6 7.8 0.00 0.00 0.00 89 1001.9
20260506193203 58 33 2.6 7.8 0.00 0.00 0.00 88 1001.9
20260506192704 58 30 2.6 6.1 0.00 0.00 0.00 88 1001.8
20260506192203 59 25 1.7 6.1 0.00 0.00 0.00 87 1001.9
20260506191204 60 21 1.7 4.3 0.00 0.00 0.00 84 1001.6
20260506185703 60 44 1.7 2.6 0.00 0.00 0.00 81 1001.5
20260506185204 60 331 1.7 2.6 0.00 0.00 0.00 79 1001.4
20260506184703 61 339 1.7 2.6 0.00 0.00 0.00 75 1001.3
20260506184204 62 305 1.7 2.6 0.00 0.00 0.00 72 1001.3
20260506183704 63 57 0.0 2.6 0.00 0.00 0.00 72 1001.1
20260506181704 63 75 1.7 2.6 0.00 0.00 0.00 70 1000.7
20260506181203 64 81 1.7 5.2 0.00 0.00 0.00 70 1000.9
20260506175703 64 94 1.7 2.6 0.00 0.00 0.00 69 1000.9
20260506175203 64 95 1.7 2.6 0.00 0.00 0.00 68 1000.8
20260506172705 66 111 3.5 7.0 0.00 0.00 0.00 64 1000.8
20260506171703 67 142 2.6 10.4 0.00 0.00 0.00 63 1000.8
20260506170703 67 120 4.3 7.8 0.00 0.00 0.00 62 1001.0
20260506170203 68 125 2.6 8.7 0.00 0.00 0.00 61 1001.0
20260506165703 68 125 5.2 10.4 0.00 0.00 0.00 61 1001.1
20260506165203 68 132 7.0 13.0 0.00 0.00 0.00 61 1001.1
20260506164703 69 145 6.1 13.0 0.00 0.00 0.00 61 1001.2
20260506164203 69 112 4.3 13.9 0.00 0.00 0.00 60 1001.1
20260506163703 69 128 6.1 13.9 0.00 0.00 0.00 60 1001.2
20260506163204 69 146 6.1 11.3 0.00 0.00 0.00 59 1001.2
20260506160703 69 149 7.8 13.0 0.00 0.00 0.00 59 1001.5
20260506160204 69 127 5.2 13.0 0.00 0.00 0.00 59 1001.5
20260506155204 68 115 6.1 12.2 0.00 0.00 0.00 61 1001.8
20260506154703 68 146 6.1 11.3 0.00 0.00 0.00 61 1001.8
20260506154204 68 126 4.3 14.8 0.00 0.00 0.00 62 1001.8
20260506152703 68 128 7.0 14.8 0.00 0.00 0.00 61 1002.0
20260506152203 69 119 5.2 14.8 0.00 0.00 0.00 62 1002.1
20260506151203 68 145 8.7 13.9 0.00 0.00 0.00 61 1002.1
20260506150203 68 126 7.8 13.9 0.00 0.00 0.00 60 1002.3
20260506145703 69 131 6.1 13.9 0.00 0.00 0.00 60 1002.3
20260506145203 69 140 7.0 13.0 0.00 0.00 0.00 58 1002.4
20260506144204 70 150 6.1 12.2 0.00 0.00 0.00 60 1002.5
20260506143703 69 156 5.2 11.3 0.00 0.00 0.00 61 1002.4
20260506142704 69 114 7.0 13.9 0.00 0.00 0.00 61 1002.5
20260506142204 69 134 7.8 13.9 0.00 0.00 0.00 62 1002.6
20260506141703 68 121 7.0 13.0 0.00 0.00 0.00 64 1002.7
20260506141204 68 129 6.1 11.3 0.00 0.00 0.00 63 1002.7
20260506140703 68 130 6.1 13.9 0.00 0.00 0.00 63 1002.7
20260506140203 68 117 7.0 13.9 0.00 0.00 0.00 62 1002.7
20260506135704 68 133 7.0 13.9 0.00 0.00 0.00 62 1002.7
20260506134704 68 169 4.3 11.3 0.00 0.00 0.00 60 1002.8
20260506133704 68 125 5.2 14.8 0.00 0.00 0.00 62 1002.8
20260506133203 68 147 8.7 14.8 0.00 0.00 0.00 60 1002.8
20260506132703 69 149 6.1 12.2 0.00 0.00 0.00 60 1002.9
20260506132204 69 116 6.1 12.2 0.00 0.00 0.00 59 1003.0
20260506131703 70 144 7.8 12.2 0.00 0.00 0.00 58 1003.1
20260506131204 71 157 5.2 10.4 0.00 0.00 0.00 57 1003.1
20260506130204 70 158 3.5 11.3 0.00 0.00 0.00 58 1003.2
20260506125203 68 106 2.6 8.7 0.00 0.00 0.00 60 1003.3
20260506124703 68 115 4.3 12.2 0.00 0.00 0.00 60 1003.4
20260506123204 67 142 6.1 12.2 0.00 0.00 0.00 60 1003.7
20260506122704 68 112 5.2 12.2 0.00 0.00 0.00 60 1003.7
20260506121703 69 127 5.2 11.3 0.00 0.00 0.00 59 1003.7
20260506121203 69 98 3.5 10.4 0.00 0.00 0.00 61 1003.9
20260506120203 69 108 4.3 13.9 0.00 0.00 0.00 58 1004.0
20260506115704 69 145 6.1 13.9 0.00 0.00 0.00 56 1004.0
20260506114204 71 175 5.2 15.6 0.00 0.00 0.00 55 1004.0
20260506112703 68 144 6.1 11.3 0.00 0.00 0.00 58 1004.2
20260506111703 68 205 1.7 5.2 0.00 0.00 0.00 62 1004.2
20260506110203 68 236 2.6 6.1 0.00 0.00 0.00 61 1004.3
20260506105204 68 164 2.6 8.7 0.00 0.00 0.00 61 1004.3
20260506104204 69 191 2.6 7.8 0.00 0.00 0.00 59 1004.4
20260506103204 68 126 1.7 5.2 0.00 0.00 0.00 63 1004.4
20260506102703 68 36 1.7 7.0 0.00 0.00 0.00 59 1004.5
20260506102203 68 193 2.6 7.0 0.00 0.00 0.00 62 1004.7
20260506095704 67 142 3.5 6.1 0.00 0.00 0.00 63 1005.0
20260506095203 68 230 1.7 5.2 0.00 0.00 0.00 62 1005.0
20260506092703 67 211 4.3 7.8 0.00 0.00 0.00 65 1005.3
20260506091204 65 115 3.5 7.8 0.00 0.00 0.00 69 1005.2
20260506085704 65 223 2.6 5.2 0.00 0.00 0.00 70 1005.3
20260506085204 64 260 1.7 7.0 0.00 0.00 0.00 69 1005.3
20260506082203 63 207 2.6 6.1 0.00 0.00 0.00 71 1005.2
20260506081204 62 231 1.7 10.4 0.00 0.00 0.00 73 1005.2
20260506073203 61 211 1.7 6.1 0.00 0.00 0.00 75 1005.3
20260506072203 61 212 2.6 5.2 0.00 0.00 0.00 77 1005.4
20260506071204 60 214 1.7 7.0 0.00 0.00 0.00 77 1005.4
20260506070204 60 221 1.7 7.0 0.00 0.00 0.00 78 1005.5
20260506062203 57 252 1.7 7.8 0.00 0.00 0.00 84 1005.5
20260506061704 57 228 4.3 7.8 0.00 0.00 0.00 84 1005.5
20260506061204 57 239 3.5 7.0 0.00 0.00 0.00 86 1005.5